H1 CPF 2 NER 2021 5 31 9 151 01 glonass132 H2 1401201 9132 39620 2021 5 31 0 0 0 2021 6 3 23 45 0 900 1 1 0 0 0 1 H9 10 0 59365 0.00000 0 857473.406 14441045.698 -20985567.029 10 0 59365 900.00000 0 -504088.604 16538188.689 -19384426.506 10 0 59365 1800.00000 0 -1588274.224 18544760.420 -17405818.050 10 0 59365 2700.00000 0 -2394912.319 20393670.228 -15088151.581 10 0 59365 3600.00000 0 -2936648.825 22021039.808 -12476487.282 10 0 59365 4500.00000 0 -3238167.834 23368820.893 -9621657.820 10 0 59365 5400.00000 0 -3334898.466 24387188.279 -6579273.081 10 0 59365 6300.00000 0 -3271262.872 25036606.145 -3408627.206 10 0 59365 7200.00000 0 -3098540.824 25289479.315 -171530.293 10 0 59365 8100.00000 0 -2872443.066 25131318.829 3068911.176 10 0 59365 9000.00000 0 -2650498.200 24561371.947 6249539.817 10 0 59365 9900.00000 0 -2489365.962 23592689.852 9308392.660 10 0 59365 10800.00000 0 -2442192.791 22251630.499 12185920.471 10 0 59365 11700.00000 0 -2556123.483 20576818.350 14826155.957 10 0 59365 12600.00000 0 -2870075.657 18617605.959 17177807.100 10 0 59365 13500.00000 0 -3412872.049 16432103.396 19195253.900 10 0 59365 14400.00000 0 -4201809.933 14084859.493 20839429.241 10 0 59365 15300.00000 0 -5241727.923 11644293.232 22078567.317 10 0 59365 16200.00000 0 -6524609.038 9179983.336 22888806.145 10 0 59365 17100.00000 0 -8029736.133 6759929.387 23254633.867 10 0 59365 18000.00000 0 -9724392.434 4447898.250 23169171.679 10 0 59365 18900.00000 0 -11565077.288 2300965.207 22634289.519 10 0 59365 19800.00000 0 -13499185.926 367350.436 21660553.708 10 0 59365 20700.00000 0 -15467082.945 -1315361.183 20267008.751 10 0 59365 21600.00000 0 -17404483.244 -2721545.335 18480798.435 10 0 59365 22500.00000 0 -19245041.721 -3838355.954 16336634.026 10 0 59365 23400.00000 0 -20923044.508 -4666003.658 13876120.030 10 0 59365 24300.00000 0 -22376090.588 -5217485.572 11146950.369 10 0 59365 25200.00000 0 -23547653.042 -5517779.677 8201990.011 10 0 59365 26100.00000 0 -24389414.064 -5602538.760 5098259.210 10 0 59365 27000.00000 0 -24863277.192 -5516339.650 1895839.191 10 0 59365 27900.00000 0 -24942973.335 -5310561.670 -1343280.455 10 0 59365 28800.00000 0 -24615193.802 -5040983.525 -4556391.106 10 0 59365 29700.00000 0 -23880202.919 -4765199.527 -7681269.048 10 0 59365 30600.00000 0 -22751904.183 -4539963.594 -10657371.453 10 0 59365 31500.00000 0 -21257356.363 -4418572.550 -13427001.837 10 0 59365 32400.00000 0 -19435758.671 -4448398.791 -15936423.029 10 0 59365 33300.00000 0 -17336945.944 -4668676.351 -18136896.559 10 0 59365 34200.00000 0 -15019455.190 -5108634.085 -19985628.577 10 0 59365 35100.00000 0 -12548242.521 -5786055.478 -21446604.128 10 0 59365 36000.00000 0 -9992144.134 -6706327.077 -22491293.601 10 0 59365 36900.00000 0 -7421185.804 -7862017.368 -23099217.279 10 0 59365 37800.00000 0 -4903851.840 -9233005.971 -23258356.518 10 0 59365 38700.00000 0 -2504426.437 -10787160.134 -22965402.765 10 0 59365 39600.00000 0 -280517.804 -12481532.524 -22225838.479 10 0 59365 40500.00000 0 1719131.868 -14264032.325 -21053847.138 10 0 59365 41400.00000 0 3456459.102 -16075501.450 -19472052.733 10 0 59365 42300.00000 0 4905438.354 -17852110.078 -17511092.461 10 0 59365 43200.00000 0 6052930.568 -19527971.746 -15209029.758 10 0 59365 44100.00000 0 6898985.239 -21037868.215 -12610618.132 10 0 59365 45000.00000 0 7456583.217 -22319969.030 -9766429.651 10 0 59365 45900.00000 0 7750831.447 -23318430.277 -6731865.006 10 0 59365 46800.00000 0 7817644.358 -23985761.742 -3566064.825 10 0 59365 47700.00000 0 7701968.757 -24284861.167 -330744.484 10 0 59365 48600.00000 0 7455628.971 -24190628.419 2911023.574 10 0 59365 49500.00000 0 7134885.367 -23691090.331 6096054.720 10 0 59365 50400.00000 0 6797811.773 -22787988.083 9162298.119 10 0 59365 51300.00000 0 6501605.022 -21496802.161 12050057.965 10 0 59365 52200.00000 0 6299942.487 -19846214.164 14703164.805 10 0 59365 53100.00000 0 6240501.018 -17877028.883 17070073.073 10 0 59365 54000.00000 0 6362743.296 -15640603.004 19104863.047 10 0 59365 54900.00000 0 6696065.691 -13196847.483 20768127.801 10 0 59365 55800.00000 0 7258385.761 -10611888.386 22027728.441 10 0 59365 56700.00000 0 8055228.486 -7955484.716 22859404.030 10 0 59365 57600.00000 0 9079348.959 -5298311.313 23247225.725 10 0 59365 58500.00000 0 10310906.455 -2709219.867 23183887.832 10 0 59365 59400.00000 0 11718181.706 -252591.207 22670831.739 10 0 59365 60300.00000 0 13258806.632 2014112.499 21718201.776 10 0 59365 61200.00000 0 14881454.571 4042495.671 20344635.058 10 0 59365 62100.00000 0 16527920.248 5794990.429 18576890.299 10 0 59365 63000.00000 0 18135502.789 7246160.109 16449323.272 10 0 59365 63900.00000 0 19639592.743 8383493.378 14003219.251 10 0 59365 64800.00000 0 20976355.836 9207658.235 11285995.177 10 0 59365 65700.00000 0 22085402.262 9732207.364 8350286.467 10 0 59365 66600.00000 0 22912330.833 9982748.777 5252935.557 10 0 59365 67500.00000 0 23411042.511 9995617.685 2053900.918 10 0 59365 68400.00000 0 23545727.145 9816106.016 -1184893.221 10 0 59365 69300.00000 0 23292440.647 9496324.166 -4400744.966 10 0 59365 70200.00000 0 22640206.541 9092784.836 -7531378.505 10 0 59365 71100.00000 0 21591595.363 8663810.280 -10516141.024 10 0 59365 72000.00000 0 20162756.815 8266871.689 -13297170.173 10 0 59365 72900.00000 0 18382902.113 7955972.395 -15820510.085 10 0 59365 73800.00000 0 16293256.596 7779184.882 -18037154.842 10 0 59365 74700.00000 0 13945524.605 7776445.381 -19903999.375 10 0 59365 75600.00000 0 11399928.830 7977699.397 -21384679.592 10 0 59365 76500.00000 0 8722903.938 8401477.046 -22450285.400 10 0 59365 77400.00000 0 5984538.924 9053959.487 -23079932.451 10 0 59365 78300.00000 0 3255873.182 9928577.396 -23261181.032 10 0 59365 79200.00000 0 606157.621 11006160.371 -22990293.140 10 0 59365 80100.00000 0 -1899805.804 12255633.133 -22272321.697 10 0 59365 81000.00000 0 -4204135.834 13635231.383 -21121028.942 10 0 59365 81900.00000 0 -6258051.927 15094188.154 -19558634.221 10 0 59365 82800.00000 0 -8023671.324 16574821.257 -17615394.753 10 0 59365 83700.00000 0 -9475347.722 18014935.000 -15329026.308 10 0 59365 84600.00000 0 -10600495.186 19350435.492 -12743974.100 10 0 59365 85500.00000 0 -11399862.461 20518049.062 -9910547.599 10 0 59366 0.00000 0 -11887246.337 21458028.415 -6883936.029 10 0 59366 900.00000 0 -12088656.531 22116730.773 -3723123.771 10 0 59366 1800.00000 0 -12040968.489 22448958.552 -489728.735 10 0 59366 2700.00000 0 -11790122.041 22419960.403 2753213.623 10 0 59366 3600.00000 0 -11388944.353 22007008.626 5942494.462 10 0 59366 4500.00000 0 -10894691.000 21200483.796 9015978.143 10 0 59366 5400.00000 0 -10366411.579 20004420.850 11913825.332 10 0 59366 6300.00000 0 -9862253.346 18436493.249 14579667.375 10 0 59366 7200.00000 0 -9436818.697 16527436.257 16961707.998 10 0 59366 8100.00000 0 -9138689.506 14319934.285 19013730.417 10 0 59366 9000.00000 0 -9008223.603 11867019.853 20695990.327 10 0 59366 9900.00000 0 -9075716.489 9230052.264 21975977.895 10 0 59366 10800.00000 0 -9360005.359 6476361.204 22829035.042 10 0 59366 11700.00000 0 -9867573.362 3676654.053 23238817.354 10 0 59366 12600.00000 0 -10592190.613 902294.925 23197593.210 10 0 59366 13500.00000 0 -11515105.861 -1777431.925 22706375.907 10 0 59366 14400.00000 0 -12605779.649 -4297961.745 21774887.688 10 0 59366 15300.00000 0 -13823127.338 -6601883.907 20421357.604 10 0 59366 16200.00000 0 -15117219.381 -8641072.410 18672158.047 10 0 59366 17100.00000 0 -16431367.499 -10378426.132 16561287.487 10 0 59366 18000.00000 0 -17704509.599 -11789148.766 14129709.655 10 0 59366 18900.00000 0 -18873794.128 -12861517.593 11424561.759 10 0 59366 19800.00000 0 -19877256.422 -13597111.195 8498246.567 10 0 59366 20700.00000 0 -20656475.771 -14010488.346 5407425.355 10 0 59366 21600.00000 0 -21159102.728 -14128332.976 2211930.353 10 0 59366 22500.00000 0 -21341151.438 -13988101.893 -1026383.137 10 0 59366 23400.00000 0 -21168961.270 -13636232.475 -4244823.490 10 0 59366 24300.00000 0 -20620745.620 -13125985.655 -7381066.304 10 0 59366 25200.00000 0 -19687662.574 -12515014.632 -10374352.166 10 0 59366 26100.00000 0 -18374361.788 -11862761.124 -13166656.079 10 0 59366 27000.00000 0 -16698983.491 -11227788.219 -15703806.480 10 0 59366 27900.00000 0 -14692607.970 -10665161.623 -17936532.687 10 0 59366 28800.00000 0 -12398176.730 -10223989.268 -19821420.706 10 0 59366 29700.00000 0 -9868928.254 -9945222.825 -21321759.107 10 0 59366 30600.00000 0 -7166411.426 -9859814.038 -22408258.541 10 0 59366 31500.00000 0 -4358157.410 -9987304.172 -23059630.635 10 0 59366 32400.00000 0 -1515105.011 -10334907.125 -23263014.573 10 0 59366 33300.00000 0 1291114.880 -10897126.249 -23014242.251 10 0 59366 34200.00000 0 3990923.834 -11655922.759 -22317935.850 10 0 59366 35100.00000 0 6519455.917 -12581430.483 -21187434.662 10 0 59366 36000.00000 0 8819022.715 -13633188.653 -19644551.260 10 0 59366 36900.00000 0 10841280.400 -14761842.324 -17719160.381 10 0 59366 37800.00000 0 12549008.059 -15911239.893 -15448627.321 10 0 59366 38700.00000 0 13917422.472 -17020839.840 -12877085.926 10 0 59366 39600.00000 0 14934973.786 -18028325.091 -10054579.761 10 0 59366 40500.00000 0 15603588.558 -18872313.961 -7036082.993 10 0 59366 41400.00000 0 15938350.131 -19495052.014 -3880420.476 10 0 59366 42300.00000 0 15966630.395 -19844969.489 -649109.000 10 0 59366 43200.00000 0 15726710.719 -19878994.470 2594856.398 10 0 59366 44100.00000 0 15265951.880 -19564522.329 5788245.875 10 0 59366 45000.00000 0 14638592.233 -18880956.729 8868841.895 10 0 59366 45900.00000 0 13903269.364 -17820756.054 11776664.116 10 0 59366 46800.00000 0 13120372.118 -16389940.494 14455146.770 10 0 59366 47700.00000 0 12349336.818 -14608038.306 16852244.492 10 0 59366 48600.00000 0 11646003.385 -12507473.863 18921444.577 10 0 59366 49500.00000 0 11060143.886 -10132423.733 20622666.009 10 0 59366 50400.00000 0 10633268.047 -7537189.562 21923028.233 10 0 59366 51300.00000 0 10396797.850 -4784156.520 22797475.810 10 0 59366 52200.00000 0 10370687.188 -1941422.938 23229248.159 10 0 59366 53100.00000 0 10562543.344 919799.824 23210186.770 10 0 59366 54000.00000 0 10967285.713 3727909.520 22740875.587 10 0 59366 54900.00000 0 11567354.577 6413644.900 21830613.259 10 0 59366 55800.00000 0 12333459.840 8912715.126 20497219.060 10 0 59366 56700.00000 0 13225837.237 11168219.371 18766677.193 10 0 59366 57600.00000 0 14195958.717 13132758.198 16672626.843 10 0 59366 58500.00000 0 15188625.015 14770151.177 14255708.123 10 0 59366 59400.00000 0 16144352.830 16056691.585 11562776.363 10 0 59366 60300.00000 0 17001956.963 16981888.085 8645999.493 10 0 59366 61200.00000 0 17701219.749 17548664.232 5561855.379 10 0 59366 62100.00000 0 18185536.517 17773009.033 2370047.742 10 0 59366 63000.00000 0 18404426.708 17683094.224 -867639.298 10 0 59366 63900.00000 0 18315805.723 17317895.837 -4088526.603 10 0 59366 64800.00000 0 17887922.301 16725378.099 -7230243.271 10 0 59366 65700.00000 0 17100879.873 15960315.726 -10231925.243 10 0 59366 66600.00000 0 15947677.431 15081845.671 -13035386.634 10 0 59366 67500.00000 0 14434725.092 14150850.657 -15586241.752 10 0 59366 68400.00000 0 12581811.218 13227283.856 -17834956.524 10 0 59366 69300.00000 0 10421520.501 12367546.676 -19737809.243 10 0 59366 70200.00000 0 7998125.152 11622029.576 -21257742.223 10 0 59366 71100.00000 0 5365993.055 11032919.225 -22365087.844 10 0 59366 72000.00000 0 2587576.997 10632364.480 -23038154.609 10 0 59366 72900.00000 0 -268933.497 10441078.956 -23263661.363 10 0 59366 73800.00000 0 -3132201.907 10467439.897 -23037010.501 10 0 59366 74700.00000 0 -5930469.674 10707122.571 -22362393.791 10 0 59366 75600.00000 0 -8594304.043 11143286.972 -21252727.578 10 0 59366 76500.00000 0 -11059254.933 11747310.495 -19729417.265 10 0 59366 77400.00000 0 -13268310.109 12480037.034 -17821954.298 10 0 59366 78300.00000 0 -15174045.982 13293490.907 -15567352.265 10 0 59366 79200.00000 0 -16740383.628 14132983.915 -13009432.052 10 0 59366 80100.00000 0 -17943875.884 14939526.599 -10197969.411 10 0 59366 81000.00000 0 -18774471.114 15652441.327 -7187721.382 10 0 59366 81900.00000 0 -19235721.349 16212065.611 -4037350.831 10 0 59366 82800.00000 0 -19344426.273 16562429.831 -808271.032 10 0 59366 83700.00000 0 -19129728.770 16653794.251 2436565.955 10 0 59366 84600.00000 0 -18631701.445 16444936.140 5633911.930 10 0 59366 85500.00000 0 -17899485.448 15905088.528 8721470.161 10 0 59367 0.00000 0 -16989062.176 15015447.297 11639121.982 10 0 59367 900.00000 0 -15960754.166 13770181.471 14330107.349 10 0 59367 1800.00000 0 -14876562.311 12176904.969 16742134.447 10 0 59367 2700.00000 0 -13797454.206 10256587.724 18828397.201 10 0 59367 3600.00000 0 -12780718.157 8042912.358 20548480.267 10 0 59367 4500.00000 0 -11877495.631 5581102.613 21869134.497 10 0 59367 5400.00000 0 -11130595.486 2926273.733 22764908.916 10 0 59367 6300.00000 0 -10572681.215 141374.015 23218628.218 10 0 59367 7200.00000 0 -10224906.074 -2705196.323 23221708.054 10 0 59367 8100.00000 0 -10096051.686 -5542189.988 22774303.602 10 0 59367 9000.00000 0 -10182204.462 -8298233.552 21885290.021 10 0 59367 9900.00000 0 -10466981.610 -10904552.373 20572076.425 10 0 59367 10800.00000 0 -10922295.671 -13297587.925 18860257.932 10 0 59367 11700.00000 0 -11509624.308 -15421400.626 16783113.068 10 0 59367 12600.00000 0 -12181731.276 -17229760.340 14380956.498 10 0 59367 13500.00000 0 -12884766.041 -18687839.727 11700359.446 10 0 59367 14400.00000 0 -13560653.950 -19773442.015 8793252.430 10 0 59367 15300.00000 0 -14149676.990 -20477713.769 5715927.084 10 0 59367 16200.00000 0 -14593137.256 -20805314.451 2527955.595 10 0 59367 17100.00000 0 -14835991.814 -20774036.801 -708952.258 10 0 59367 18000.00000 0 -14829348.748 -20413894.588 -3932133.065 10 0 59367 18900.00000 0 -14532719.733 -19765716.226 -7079172.725 10 0 59367 19800.00000 0 -13915934.417 -18879303.130 -10089105.838 10 0 59367 20700.00000 0 -12960635.722 -17811229.658 -12903588.904 10 0 59367 21600.00000 0 -11661292.323 -16622376.360 -15468025.253 10 0 59367 22500.00000 0 -10025684.413 -15375299.364 -17732620.383 10 0 59367 23400.00000 0 -8074840.543 -14131545.629 -19653347.540 10 0 59367 24300.00000 0 -5842425.980 -12949026.170 -21192805.058 10 0 59367 25200.00000 0 -3373605.632 -11879557.118 -22320948.833 10 0 59367 26100.00000 0 -723426.532 -10966671.729 -23015685.474 10 0 59367 27000.00000 0 2045215.180 -10243795.398 -23263314.148 10 0 59367 27900.00000 0 4863940.346 -9732860.804 -23058807.822 10 0 59367 28800.00000 0 7661489.241 -9443422.229 -22405927.383 10 0 59367 29700.00000 0 10366453.415 -9372307.265 -21317165.260 10 0 59367 30600.00000 0 12910024.061 -9503821.714 -19813518.245 10 0 59367 31500.00000 0 15228642.567 -9810500.143 -17924092.611 10 0 59367 32400.00000 0 17266442.547 -10254371.368 -15685547.933 10 0 59367 33300.00000 0 18977380.805 -10788686.022 -13141389.406 10 0 59367 34200.00000 0 20326967.267 -11360033.355 -10341121.856 10 0 59367 35100.00000 0 21293520.686 -11910757.356 -7339281.707 10 0 59367 36000.00000 0 21868896.842 -12381569.004 -4194366.086 10 0 59367 36900.00000 0 22058658.369 -12714242.656 -967680.818 10 0 59367 37800.00000 0 21881679.385 -12854280.612 2277868.967 10 0 59367 38700.00000 0 21369202.353 -12753431.092 5479020.544 10 0 59367 39600.00000 0 20563388.261 -12371951.117 8573401.556 10 0 59367 40500.00000 0 19515423.023 -11680516.889 11500758.300 10 0 59367 41400.00000 0 18283261.915 -10661699.567 14204138.949 10 0 59367 42300.00000 0 16929109.178 -9310943.313 16631007.478 10 0 59367 43200.00000 0 15516740.806 -7637003.981 18734266.086 10 0 59367 44100.00000 0 14108784.620 -5661829.983 20473166.164 10 0 59367 45000.00000 0 12764072.888 -3419890.733 21814090.526 10 0 59367 45900.00000 0 11535178.871 -956981.257 22731192.726 10 0 59367 46800.00000 0 10466240.168 1671446.579 23206882.349 10 0 59367 47700.00000 0 9591158.996 4402356.200 23232148.386 10 0 59367 48600.00000 0 8932253.140 7167515.491 22806716.058 10 0 59367 49500.00000 0 8499412.107 9896103.985 21939035.494 10 0 59367 50400.00000 0 8289791.719 12517430.399 20646103.804 10 0 59367 51300.00000 0 8288057.911 14963648.839 18953124.938 10 0 59367 52200.00000 0 8467167.747 17172362.409 16893014.473 10 0 59367 53100.00000 0 8789653.569 19089007.681 14505759.188 10 0 59367 54000.00000 0 9209355.491 20668922.872 11837643.644 10 0 59367 54900.00000 0 9673529.083 21879015.439 8940358.312 10 0 59367 55800.00000 0 10125239.680 22698961.324 5870005.915 10 0 59367 56700.00000 0 10505942.977 23121887.278 2686024.413 10 0 59367 57600.00000 0 10758143.830 23154508.846 -549953.402 10 0 59367 58500.00000 0 10828021.936 22816718.957 -3775282.396 10 0 59367 59400.00000 0 10667914.257 22140644.613 -6927507.644 10 0 59367 60300.00000 0 10238549.876 21169211.118 -9945564.551 10 0 59367 61200.00000 0 9510943.050 19954273.567 -12770953.890 10 0 59367 62100.00000 0 8467864.178 18554393.252 -15348869.617 10 0 59367 63000.00000 0 7104825.697 17032351.373 -17629258.146 10 0 59367 63900.00000 0 5430539.921 15452503.382 -19567788.783 10 0 59367 64800.00000 0 3466827.509 13878084.053 -21126716.789 10 0 59367 65700.00000 0 1247977.967 12368575.505 -22275622.329 10 0 59367 66600.00000 0 -1180413.668 10977248.050 -22992010.717 10 0 59367 67500.00000 0 -3763088.031 9748976.730 -23261761.880 10 0 59367 68400.00000 0 -6437174.611 8718425.188 -23079419.580 10 0 59367 69300.00000 0 -9134573.420 7908673.461 -22448313.784 10 0 59367 70200.00000 0 -11784567.660 7330347.928 -21380512.625 10 0 59367 71100.00000 0 -14316559.727 6981290.696 -19896603.533 10 0 59367 72000.00000 0 -16662816.950 6846783.220 -18025306.463 10 0 59367 72900.00000 0 -18761112.537 6900315.398 -15802925.477 10 0 59367 73800.00000 0 -20557150.962 7104868.173 -13272648.260 10 0 59367 74700.00000 0 -22006675.383 7414655.625 -10483706.653 10 0 59367 75600.00000 0 -23077167.949 7777252.494 -7490414.240 10 0 59367 76500.00000 0 -23749070.664 8136016.283 -4351100.066 10 0 59367 77400.00000 0 -24016474.862 8432700.009 -1126960.103 10 0 59367 78300.00000 0 -23887250.068 8610143.204 2119149.925 10 0 59367 79200.00000 0 -23382607.098 8614925.164 5323955.280 10 0 59367 80100.00000 0 -22536114.651 8399866.047 8425010.535 10 0 59367 81000.00000 0 -21392212.197 7926268.037 11361929.468 10 0 59367 81900.00000 0 -20004283.524 7165800.168 14077571.122 10 0 59367 82800.00000 0 -18432374.011 6101946.043 16519157.712 10 0 59367 83700.00000 0 -16740649.508 4730952.688 18639302.038 10 0 59367 84600.00000 0 -14994705.241 3062240.297 20396924.366 10 0 59367 85500.00000 0 -13258838.863 1118255.862 21758041.317 10 0 59368 0.00000 0 -11593402.481 -1066222.767 22696412.474 10 0 59368 900.00000 0 -10052344.501 -3445303.181 23194033.472 10 0 59368 1800.00000 0 -8681042.715 -5963662.855 23241467.389 10 0 59368 2700.00000 0 -7514518.979 -8558632.634 22838009.811 10 0 59368 3600.00000 0 -6576106.530 -11162591.546 21991685.781 10 0 59368 4500.00000 0 -5876624.686 -13705574.294 20719079.948 10 0 59368 5400.00000 0 -5414092.465 -16117983.730 19045004.242 10 0 59368 6300.00000 0 -5173991.133 -18333296.873 17002010.065 10 0 59368 7200.00000 0 -5130062.769 -20290653.344 14629754.719 10 0 59368 8100.00000 0 -5245609.943 -21937220.231 11974234.201 10 0 59368 9000.00000 0 -5475241.017 -23230236.634 9086896.749 10 0 59368 9900.00000 0 -5766987.305 -24138654.155 6023653.764 10 0 59368 10800.00000 0 -6064703.041 -24644306.330 2843806.397 10 0 59368 11700.00000 0 -6310647.424 -24742559.158 -391092.261 10 0 59368 12600.00000 0 -6448140.481 -24442416.204 -3618418.176 10 0 59368 13500.00000 0 -6424181.311 -23766074.130 -6775678.511 10 0 59368 14400.00000 0 -6191918.739 -22747947.156 -9801712.457 10 0 59368 15300.00000 0 -5712870.336 -21433200.785 -12637868.058 10 0 59368 16200.00000 0 -4958796.045 -19875855.485 -15229132.887 10 0 59368 17100.00000 0 -3913146.713 -18136538.742 -17525197.144 10 0 59368 18000.00000 0 -2572025.376 -16279978.582 -19481428.882 10 0 59368 18900.00000 0 -944619.097 -14372342.433 -21059742.684 10 0 59368 19800.00000 0 946918.993 -12478531.689 -22229344.998 10 0 59368 20700.00000 0 3068135.001 -10659544.468 -22967341.410 10 0 59368 21600.00000 0 5373461.788 -8970016.327 -23259193.690 10 0 59368 22500.00000 0 7807881.767 -7456041.603 -23099016.987 10 0 59368 23400.00000 0 10308997.901 -6153366.660 -22489710.455 10 0 59368 24300.00000 0 12809428.570 -5086031.009 -21442917.573 10 0 59368 25200.00000 0 15239427.884 -4265513.748 -19978815.606 10 0 59368 26100.00000 0 17529622.917 -3690421.763 -18125736.939 10 0 59368 27000.00000 0 19613753.790 -3346733.325 -15919628.394 10 0 59368 27900.00000 0 21431301.785 -3208587.125 -13403357.955 10 0 59368 28800.00000 0 22929894.596 -3239583.593 -10625881.786 10 0 59368 29700.00000 0 24067386.871 -3394543.148 -7641287.486 10 0 59368 30600.00000 0 24813527.579 -3621646.216 -4507732.473 10 0 59368 31500.00000 0 25151143.046 -3864863.171 -1286299.026 10 0 59368 32400.00000 0 25076785.232 -4066569.586 1960210.513 10 0 59368 33300.00000 0 24600817.701 -4170233.982 5168513.374 10 0 59368 34200.00000 0 23746935.988 -4123062.140 8276094.862 10 0 59368 35100.00000 0 22551143.420 -3878483.918 11222439.745 10 0 59368 36000.00000 0 21060226.873 -3398375.527 13950221.038 10 0 59368 36900.00000 0 19329798.228 -2654921.930 16406421.816 10 0 59368 37800.00000 0 17421985.654 -1632039.761 18543367.604 10 0 59368 38700.00000 0 15402873.230 -326300.321 20319649.143 10 0 59368 39600.00000 0 13339797.624 1252686.184 21700917.985 10 0 59368 40500.00000 0 11298615.759 3082441.019 22660540.390 10 0 59368 41400.00000 0 9341057.845 5128334.330 23180098.160 10 0 59368 42300.00000 0 7522275.803 7344819.020 23249728.170 10 0 59368 43200.00000 0 5888688.152 9677129.211 22868295.649 10 0 59368 44100.00000 0 4476209.394 12063372.401 22043399.361 10 0 59368 45000.00000 0 3308935.628 14436928.276 20791209.901 10 0 59368 45900.00000 0 2398338.717 16729054.952 19136145.216 10 0 59368 46800.00000 0 1743000.230 18871595.119 17110390.255 10 0 59368 47700.00000 0 1328894.042 20799670.621 14753270.314 10 0 59368 48600.00000 0 1130203.851 22454254.685 12110490.089 10 0 59368 49500.00000 0 1110639.874 23784516.153 9233252.721 10 0 59368 50400.00000 0 1225198.587 24749839.295 6177275.321 10 0 59368 51300.00000 0 1422291.083 25321436.187 3001719.234 10 0 59368 52200.00000 0 1646150.467 25483485.267 -231945.141 10 0 59368 53100.00000 0 1839417.245 25233749.050 -3461117.760 10 0 59368 54000.00000 0 1945794.138 24583645.404 -6623270.611 10 0 59368 54900.00000 0 1912658.866 23557769.222 -9657149.174 10 0 59368 55800.00000 0 1693525.012 22192883.956 -12503950.988 10 0 59368 56700.00000 0 1250247.248 20536424.378 -15108459.146 10 0 59368 57600.00000 0 554877.529 18644572.087 -17420109.235 10 0 59368 58500.00000 0 -408906.708 16579983.054 -19393969.351 10 0 59368 59400.00000 0 -1644863.875 14409260.958 -20991614.434 10 0 59368 60300.00000 0 -3143780.394 12200280.618 -22181878.009 10 0 59368 61200.00000 0 -4883613.053 10019472.393 -22941466.522 10 0 59368 62100.00000 0 -6830178.143 7929180.079 -23255423.927 10 0 59368 63000.00000 0 -8938361.187 5985202.108 -23117436.854 10 0 59368 63900.00000 0 -11153799.124 4234618.585 -22529973.425 10 0 59368 64800.00000 0 -13414966.928 2713994.989 -21504251.893 10 0 59368 65700.00000 0 -15655583.227 1448037.927 -20060038.396 10 0 59368 66600.00000 0 -17807235.529 448759.703 -18225276.401 10 0 59368 67500.00000 0 -19802115.854 -284812.906 -16035553.775 10 0 59368 68400.00000 0 -21575752.172 -766373.142 -13533416.778 10 0 59368 69300.00000 0 -23069620.504 -1021523.145 -10767543.638 10 0 59368 70200.00000 0 -24233527.067 -1086451.746 -7791793.541 10 0 59368 71100.00000 0 -25027659.100 -1006157.788 -4664149.743 10 0 59368 72000.00000 0 -25424216.776 -832295.273 -1445578.224 10 0 59368 72900.00000 0 -25408556.432 -620733.181 1801174.713 10 0 59368 73800.00000 0 -24979796.228 -428935.284 5012820.945 10 0 59368 74700.00000 0 -24150858.482 -313273.056 8126779.202 10 0 59368 75600.00000 0 -22947947.246 -326387.654 11082407.906 10 0 59368 76500.00000 0 -21409483.975 -514714.609 13822196.637 10 0 59368 77400.00000 0 -19584547.342 -916277.524 16292891.792 10 0 59368 78300.00000 0 -17530884.303 -1558845.147 18446533.864 10 0 59368 79200.00000 0 -15312577.346 -2458530.237 20241386.037 10 0 59368 80100.00000 0 -12997467.092 -3618889.381 21642736.397 10 0 59368 81000.00000 0 -10654438.963 -5030561.379 22623559.090 10 0 59368 81900.00000 0 -8350687.599 -6671458.902 23165022.920 10 0 59368 82800.00000 0 -6149072.944 -8507504.758 23256838.948 10 0 59368 83700.00000 0 -4105677.185 -10493881.408 22897442.046 10 0 59368 84600.00000 0 -2267662.699 -12576741.220 22094004.359 10 0 59368 85500.00000 0 -671518.221 -14695305.939 20862281.748 99